Weather History for Dillon, MT

Change the Weather History Date:

Thursday, November 22, 2012

  Actual Average Record
Temperature  
Mean Temperature 29 °F 27 °F  
Max Temperature 35 °F 37 °F 66 °F (1954)
Min Temperature 22 °F 17 °F -21 °F (1985)
Degree Days  
Heating Degree Days 36    
Month to date heating degree days 666  
Since 1 July heating degree days 1532  
Cooling Degree Days 0    
Month to date cooling degree days 0  
Year to date cooling degree days 242  
Moisture  
Dew Point 15 °F    
Average Humidity 57    
Maximum Humidity 75    
Minimum Humidity 38    
Precipitation  
Precipitation T in 0.01 in 0.22 in (1962)
Month to date precipitation 0.24 0.29  
Year to date precipitation 6.06 10.22  
Snow  
Snow 0.00 in - - ()
Snow Depth T in    
Sea Level Pressure  
Sea Level Pressure 30.41 in    
Wind  
Wind Speed 10 mph (SW)    
Max Wind Speed 22 mph    
Max Gust Speed 29 mph    
Visibility 10 miles    
Events      
T = Trace of Precipitation, MM = Missing Value Source: NWS Daily Summary

Daily Weather History Graph

Daily Weather History Graph

Search for Another Location

Airport:

Trip Planner

Search our weather history database for the weather conditions in past years. The results will help you decide how hot, cold, wet, or windy it might be!

Date:

Astronomy

Nov. 22, 2012 Rise Set
Actual Time 7:38 AM MST 4:53 PM MST
Civil Twilight 7:06 AM MST 5:26 PM MST
Nautical Twilight 6:29 AM MST 6:02 PM MST
Astronomical Twilight 5:54 AM MST 6:38 PM MST
Moon 1:54 PM MST (11/22) 1:48 AM MST (11/22)
Length of Visible Light 10h 20m
Length of Day
9h 15m
Waxing Gibbous, 72% of the Moon is Illuminated
Nov 22
Waxing Gibbous
Nov 28
Full
Dec 6
Last Quarter
Dec 13
New
Dec 19
First Quarter

Hourly Weather History & Observations

Time (MST) Temp. Windchill Dew Point Humidity Pressure Visibility Wind Dir Wind Speed Gust Speed Precip Events Conditions
12:53 AM 25.0 °F 17.1 °F 17.1 °F 72% 30.11 in 10.0 mi SSE 6.9 mph - N/A   Scattered Clouds
1:53 AM 24.1 °F 15.2 °F 16.0 °F 71% 30.10 in 10.0 mi South 8.1 mph - N/A   Clear
2:53 AM 27.0 °F 17.3 °F 19.9 °F 75% 30.16 in 9.0 mi WSW 10.4 mph - 0.00 in   Mostly Cloudy
3:53 AM 27.0 °F 16.1 °F 19.9 °F 75% 30.21 in 10.0 mi West 12.7 mph 18.4 mph N/A   Mostly Cloudy
4:53 AM 28.0 °F 15.3 °F 17.1 °F 63% 30.26 in 10.0 mi WSW 18.4 mph 25.3 mph N/A   Scattered Clouds
5:53 AM 27.0 °F 21.6 °F 16.0 °F 63% 30.33 in 10.0 mi Variable 4.6 mph - N/A   Clear
6:53 AM 27.0 °F 13.9 °F 15.1 °F 61% 30.35 in 10.0 mi SW 18.4 mph 26.5 mph N/A   Clear
7:53 AM 26.1 °F 14.5 °F 12.9 °F 58% 30.39 in 10.0 mi WSW 13.8 mph - N/A   Clear
8:53 AM 28.9 °F 19.2 °F 10.9 °F 47% 30.43 in 10.0 mi WSW 11.5 mph 23.0 mph N/A   Clear
9:53 AM 30.0 °F 22.4 °F 12.9 °F 49% 30.47 in 10.0 mi SSE 8.1 mph 18.4 mph N/A   Clear
10:53 AM 32.0 °F 22.5 °F 12.9 °F 45% 30.47 in 10.0 mi West 12.7 mph - N/A   Clear
11:53 AM 33.1 °F 24.9 °F 15.1 °F 48% 30.47 in 10.0 mi SSW 10.4 mph - N/A   Clear
12:53 PM 34.0 °F 25.0 °F 15.1 °F 46% 30.46 in 10.0 mi West 12.7 mph - N/A   Clear
1:53 PM 35.1 °F 25.2 °F 12.9 °F 40% 30.47 in 10.0 mi WSW 16.1 mph - N/A   Clear
2:53 PM 35.1 °F 27.9 °F 15.1 °F 44% 30.45 in 10.0 mi WSW 9.2 mph - N/A   Clear
3:53 PM 34.0 °F 26.6 °F 14.0 °F 44% 30.47 in 10.0 mi WSW 9.2 mph - N/A   Clear
4:53 PM 28.9 °F 21.9 °F 14.0 °F 54% 30.51 in 10.0 mi SW 6.9 mph - N/A   Clear
5:53 PM 30.0 °F 23.2 °F 15.1 °F 54% 30.51 in 10.0 mi SE 6.9 mph - N/A   Clear
6:53 PM 28.9 °F 21.1 °F 15.1 °F 56% 30.53 in 10.0 mi South 8.1 mph - N/A   Clear
7:53 PM 28.9 °F 23.9 °F 12.9 °F 51% 30.54 in 10.0 mi South 4.6 mph - N/A   Clear
8:53 PM 24.1 °F 17.0 °F 12.9 °F 62% 30.56 in 10.0 mi SSW 5.8 mph - N/A   Clear
9:53 PM 25.0 °F 14.8 °F 12.9 °F 60% 30.55 in 10.0 mi SSW 10.4 mph - N/A   Clear
10:53 PM 25.0 °F 16.3 °F 14.0 °F 63% 30.55 in 10.0 mi South 8.1 mph - N/A   Clear
11:53 PM 24.1 °F 13.7 °F 15.1 °F 69% 30.54 in 10.0 mi SSW 10.4 mph - N/A   Clear